Tracking 34719 objects as of 12-Jul-2026
HD Live streaming from Space Station
objects crossing your sky now

ARIANE 5 DEB (SYLDA)

Track ARIANE 5 DEB (SYLDA) now!
10-day predictions


NORAD ID: 42694
Int'l Code: 2017-023D
Perigee: 591.9 km
Apogee: 17,382.2 km
Inclination: 3.7 °
Period: 315.7 minutes
Semi major axis: 15358 km
RCS: Unknown
Launch date: May 4, 2017
Source: France (FR)
Launch site: FRENCH GUIANA (FRGUI)

Note: This is SATELLITE DEBRIS
Your satellite tracking list
Your tracking list is empty




NASA's NSSDC Master Catalog

Two Line Element Set (TLE):
1 42694U 17023D   26193.48873693 -.00000118  00000-0 -59411-3 0  9992
2 42694   3.7048 167.6401 5466265 219.8364  83.2286  4.56140496117345
Source of the keplerian elements: AFSPC